N6AC Weather Reports


time (UTC)temp
C
wind
direction
speed
KPH
gust
KPH
rain 1hr
cm
rain 24hr
cm
rain mn
cm
humidity
%
barometer
mb
20260508043742 14 23 0.0 0.0 0.00 0.00 0.00 81 1013.4
20260508043237 14 248 0.0 0.0 0.00 0.00 0.00 79 1013.4
20260508042727 15 158 0.0 0.0 0.00 0.00 0.00 79 1013.4
20260508042222 15 180 0.0 0.0 0.00 0.00 0.00 79 1013.2
20260508041717 15 203 0.0 0.0 0.00 0.00 0.00 79 1013.2
20260508041212 15 158 3.2 3.2 0.00 0.00 0.00 79 1013.1
20260508040647 15 203 0.0 0.0 0.00 0.00 0.00 79 1013.1
20260508040142 15 135 0.0 0.0 0.00 0.00 0.00 81 1013.0
20260508035112 15 248 0.0 0.0 0.00 0.00 0.00 80 1013.0
20260508034607 15 135 0.0 0.0 0.00 0.00 0.00 78 1012.9
20260508034102 15 203 0.0 0.0 0.00 0.00 0.00 76 1012.9
20260508033552 15 180 0.0 0.0 0.00 0.00 0.00 75 1012.8
20260508032542 15 180 0.0 0.0 0.00 0.00 0.00 74 1012.6
20260508032037 15 158 0.0 0.0 0.00 0.00 0.00 73 1012.6
20260508031527 15 203 0.0 0.0 0.00 0.00 0.00 73 1012.6
20260508031022 15 135 0.0 0.0 0.00 0.00 0.00 74 1012.4
20260508030517 16 180 0.0 0.0 0.00 0.00 0.00 72 1012.4
20260508030012 16 135 0.0 0.0 0.00 0.00 0.00 72 1012.3
20260508024957 16 248 0.0 0.0 0.00 0.00 0.00 71 1012.2
20260508023407 17 0 0.0 0.0 0.00 0.00 0.00 66 1012.0
20260508022857 17 338 0.0 0.0 0.00 0.00 0.00 65 1012.0
20260508022352 17 270 0.0 0.0 0.00 0.00 0.00 64 1012.0
20260508021847 17 315 0.0 0.0 0.00 0.00 0.00 64 1012.0
20260508021342 17 315 3.2 3.2 0.00 0.00 0.00 63 1011.9
20260508020837 17 293 3.2 3.2 0.00 0.00 0.00 62 1011.9
20260508015822 18 225 0.0 0.0 0.00 0.00 0.00 66 1011.9
20260508015305 18 135 1.6 1.6 0.00 0.00 0.00 64 1011.9
20260508013742 19 135 1.6 1.6 0.00 0.00 0.00 63 1011.8
20260508013237 20 113 3.2 3.2 0.00 0.00 0.00 63 1011.8
20260508012222 20 135 0.0 0.0 0.00 0.00 0.00 62 1011.8
20260508011717 20 158 0.0 0.0 0.00 0.00 0.00 62 1011.8
20260508010647 20 203 0.0 0.0 0.00 0.00 0.00 61 1011.8
20260508010142 21 45 4.8 4.8 0.00 0.00 0.00 60 1011.9
20260508005637 21 90 1.6 1.6 0.00 0.00 0.00 60 1011.9
20260508005127 21 315 4.8 4.8 0.00 0.00 0.00 59 1011.9
20260508004622 21 113 1.6 1.6 0.00 0.00 0.00 61 1011.8
20260508003612 21 270 0.0 0.0 0.00 0.00 0.00 59 1011.8
20260508003107 22 113 1.6 1.6 0.00 0.00 0.00 58 1011.8
20260508002557 21 113 1.6 1.6 0.00 0.00 0.00 59 1011.9
20260508002052 21 225 3.2 3.2 0.00 0.00 0.00 60 1011.9
20260508001547 21 158 4.8 4.8 0.00 0.00 0.00 60 1011.9
20260508001042 21 135 1.6 1.6 0.00 0.00 0.00 59 1011.9
20260507235652 22 68 3.2 3.2 0.00 0.00 0.00 56 1012.0
20260507235148 23 180 1.6 1.6 0.00 0.00 0.00 55 1012.0
20260507234642 23 270 1.6 1.6 0.00 0.00 0.00 54 1011.9
20260507234137 23 315 3.2 3.2 0.00 0.00 0.00 54 1011.9
20260507233122 24 135 4.8 4.8 0.00 0.00 0.00 53 1011.9
20260507232617 23 158 4.8 4.8 0.00 0.00 0.00 54 1012.1
20260507231057 24 90 3.2 3.2 0.00 0.00 0.00 52 1012.0
20260507225557 24 180 4.8 4.8 0.00 0.00 0.00 51 1012.2
20260507224547 25 338 3.2 3.2 0.00 0.00 0.00 51 1012.1
20260507224042 24 180 4.8 4.8 0.00 0.00 0.00 52 1012.1
20260507223537 25 338 3.2 3.2 0.00 0.00 0.00 51 1012.3
20260507223027 25 45 3.2 3.2 0.00 0.00 0.00 51 1012.3
20260507222522 25 45 3.2 3.2 0.00 0.00 0.00 51 1012.4
20260507222017 25 113 3.2 3.2 0.00 0.00 0.00 51 1012.4
20260507221513 25 113 4.8 4.8 0.00 0.00 0.00 51 1012.4
20260507221002 24 338 0.0 0.0 0.00 0.00 0.00 52 1012.5
20260507220457 24 225 4.8 4.8 0.00 0.00 0.00 52 1012.5
20260507215952 24 23 4.8 4.8 0.00 0.00 0.00 52 1012.6
20260507215447 25 203 4.8 4.8 0.00 0.00 0.00 52 1012.6
20260507214942 24 338 3.2 3.2 0.00 0.00 0.00 52 1012.8
20260507214432 23 338 6.4 6.4 0.00 0.00 0.00 53 1012.8
20260507213928 23 158 4.8 4.8 0.00 0.00 0.00 54 1012.8
20260507213422 23 158 4.8 4.8 0.00 0.00 0.00 53 1012.8
20260507212412 24 338 4.8 4.8 0.00 0.00 0.00 52 1013.0
20260507211907 23 0 3.2 3.2 0.00 0.00 0.00 52 1013.0
20260507210817 23 248 4.8 4.8 0.00 0.00 0.00 55 1013.2
20260507210252 23 315 4.8 4.8 0.00 0.00 0.00 54 1013.2
20260507205748 24 293 4.8 4.8 0.00 0.00 0.00 53 1013.1
20260507205223 22 225 4.8 4.8 0.00 0.00 0.00 56 1013.1
20260507204718 24 293 4.8 4.8 0.00 0.00 0.00 51 1013.4
20260507204212 23 315 3.2 3.2 0.00 0.00 0.00 53 1013.4
20260507203703 25 293 9.7 9.7 0.00 0.00 0.00 49 1013.3
20260507202652 23 23 4.8 4.8 0.00 0.00 0.00 50 1013.3
20260507201137 23 0 4.8 4.8 0.00 0.00 0.00 50 1013.7
20260507200627 24 90 3.2 3.2 0.00 0.00 0.00 52 1013.7
20260507195618 22 203 8.0 8.0 0.00 0.00 0.00 54 1013.7
20260507195113 22 158 6.4 6.4 0.00 0.00 0.00 56 1013.7
20260507194548 22 248 6.4 6.4 0.00 0.00 0.00 55 1013.7
20260507194043 22 113 6.4 6.4 0.00 0.00 0.00 55 1013.7
20260507193538 22 135 6.4 6.4 0.00 0.00 0.00 55 1013.9
20260507193028 22 0 4.8 4.8 0.00 0.00 0.00 55 1013.9
20260507191958 22 180 8.0 8.0 0.00 0.00 0.00 55 1014.0
20260507190928 21 135 6.4 6.4 0.00 0.00 0.00 58 1014.1
20260507185408 20 203 9.7 9.7 0.00 0.00 0.00 63 1014.1
20260507184903 21 225 8.0 8.0 0.00 0.00 0.00 61 1014.3
20260507184358 23 113 6.4 6.4 0.00 0.00 0.00 54 1014.3
20260507183853 23 270 3.2 3.2 0.00 0.00 0.00 54 1014.3
20260507182838 21 113 8.0 8.0 0.00 0.00 0.00 58 1014.1
20260507182333 23 158 4.8 4.8 0.00 0.00 0.00 52 1014.2
20260507181323 22 338 4.8 4.8 0.00 0.00 0.00 57 1014.3
20260507180818 21 225 3.2 3.2 0.00 0.00 0.00 58 1014.3
20260507180308 21 203 8.0 8.0 0.00 0.00 0.00 59 1014.3
20260507175803 21 23 3.2 3.2 0.00 0.00 0.00 60 1014.1
20260507175258 21 270 3.2 3.2 0.00 0.00 0.00 60 1014.1
20260507174754 21 338 3.2 3.2 0.00 0.00 0.00 60 1014.3
20260507174243 20 158 6.4 6.4 0.00 0.00 0.00 65 1014.3
20260507173738 18 180 9.7 9.7 0.00 0.00 0.00 67 1014.3
20260507173233 20 158 8.0 8.0 0.00 0.00 0.00 65 1014.3
20260507172728 20 113 4.8 4.8 0.00 0.00 0.00 65 1014.3
20260507172223 21 113 4.8 4.8 0.00 0.00 0.00 59 1014.3
20260507171713 20 0 4.8 4.8 0.00 0.00 0.00 59 1014.3
20260507171208 20 293 8.0 8.0 0.00 0.00 0.00 60 1014.4
20260507170703 21 113 3.2 3.2 0.00 0.00 0.00 60 1014.4
20260507170158 20 113 3.2 3.2 0.00 0.00 0.00 63 1014.3
20260507165648 20 158 4.8 4.8 0.00 0.00 0.00 61 1014.3
20260507165143 20 90 3.2 3.2 0.00 0.00 0.00 61 1014.3
20260507164638 20 158 3.2 3.2 0.00 0.00 0.00 63 1014.4
20260507164133 20 315 4.8 4.8 0.00 0.00 0.00 61 1014.4
20260507163123 19 113 8.0 8.0 0.00 0.00 0.00 62 1014.5
20260507162613 20 135 4.8 4.8 0.00 0.00 0.00 60 1014.3
20260507162108 19 135 3.2 3.2 0.00 0.00 0.00 63 1014.3
20260507161058 18 158 1.6 1.6 0.00 0.00 0.00 64 1014.6
20260507160548 18 180 4.8 4.8 0.00 0.00 0.00 64 1014.6
20260507155538 18 113 6.4 6.4 0.00 0.00 0.00 65 1014.4
20260507155033 18 158 6.4 6.4 0.00 0.00 0.00 64 1014.5
20260507154528 18 68 9.7 9.7 0.00 0.00 0.00 65 1014.5
20260507154018 18 158 6.4 6.4 0.00 0.00 0.00 67 1014.5
20260507153513 17 225 8.0 8.0 0.00 0.00 0.00 68 1014.5
20260507153008 17 180 6.4 6.4 0.00 0.00 0.00 68 1014.5
20260507152503 17 113 8.0 8.0 0.00 0.00 0.00 68 1014.6
20260507151958 17 158 6.4 6.4 0.00 0.00 0.00 68 1014.6
20260507151448 17 158 3.2 3.2 0.00 0.00 0.00 67 1014.5
20260507150943 17 180 4.8 4.8 0.00 0.00 0.00 69 1014.5
20260507150418 17 180 4.8 4.8 0.00 0.00 0.00 68 1014.5
20260507145408 17 180 4.8 4.8 0.00 0.00 0.00 68 1014.4
20260507144903 17 113 1.6 1.6 0.00 0.00 0.00 70 1014.4
20260507144358 16 135 6.4 6.4 0.00 0.00 0.00 72 1014.4
20260507143848 16 113 6.4 6.4 0.00 0.00 0.00 71 1014.3
20260507143343 16 135 3.2 3.2 0.00 0.00 0.00 72 1014.3
20260507142838 16 158 6.4 6.4 0.00 0.00 0.00 72 1014.3
20260507142333 16 113 4.8 4.8 0.00 0.00 0.00 71 1014.1
20260507141828 16 135 6.4 6.4 0.00 0.00 0.00 69 1014.1
20260507140813 15 135 3.2 3.2 0.00 0.00 0.00 72 1014.1
20260507140308 16 90 3.2 3.2 0.00 0.00 0.00 72 1014.1
20260507135804 15 135 1.6 1.6 0.00 0.00 0.00 74 1013.9
20260507134243 15 113 1.6 1.6 0.00 0.00 0.00 72 1013.7
20260507133738 15 158 3.2 3.2 0.00 0.00 0.00 73 1013.8
20260507133233 15 135 4.8 4.8 0.00 0.00 0.00 72 1013.8
20260507132218 13 203 0.0 0.0 0.00 0.00 0.00 78 1013.8
20260507131713 12 203 0.0 0.0 0.00 0.00 0.00 82 1013.8
20260507131208 12 180 0.0 0.0 0.00 0.00 0.00 83 1013.7
20260507130703 12 203 0.0 0.0 0.00 0.00 0.00 82 1013.7
20260507130158 12 135 0.0 0.0 0.00 0.00 0.00 80 1013.5
20260507125648 13 158 3.2 3.2 0.00 0.00 0.00 78 1013.5
20260507125143 12 180 0.0 0.0 0.00 0.00 0.00 83 1013.5
20260507124638 12 225 0.0 0.0 0.00 0.00 0.00 83 1013.5
20260507124133 12 180 0.0 0.0 0.00 0.00 0.00 82 1013.5
20260507123628 12 248 0.0 0.0 0.00 0.00 0.00 81 1013.5
20260507123118 12 293 0.0 0.0 0.00 0.00 0.00 81 1013.5
20260507122613 13 338 0.0 0.0 0.00 0.00 0.00 79 1013.6
20260507122108 13 180 0.0 0.0 0.00 0.00 0.00 79 1013.6
20260507121604 13 203 0.0 0.0 0.00 0.00 0.00 79 1013.6
20260507121058 12 225 0.0 0.0 0.00 0.00 0.00 83 1013.6
20260507120548 12 45 0.0 0.0 0.00 0.00 0.00 83 1013.6
20260507120043 12 225 0.0 0.0 0.00 0.00 0.00 82 1013.7
20260507115538 12 0 0.0 0.0 0.00 0.00 0.00 82 1013.7
20260507115033 12 315 1.6 1.6 0.00 0.00 0.00 82 1013.6
20260507114528 12 113 0.0 0.0 0.00 0.00 0.00 81 1013.6
20260507113513 12 315 3.2 3.2 0.00 0.00 0.00 82 1013.5
20260507113008 12 315 0.0 0.0 0.00 0.00 0.00 82 1013.5
20260507111953 12 315 0.0 0.0 0.00 0.00 0.00 82 1013.5
20260507110438 12 293 3.2 3.2 0.00 0.00 0.00 82 1013.8
20260507105933 12 270 0.0 0.0 0.00 0.00 0.00 80 1013.9
20260507105424 12 135 1.6 1.6 0.00 0.00 0.00 79 1013.9
20260507104919 12 293 3.2 3.2 0.00 0.00 0.00 79 1013.9
20260507104413 12 293 3.2 3.2 0.00 0.00 0.00 80 1013.9
20260507103908 12 338 1.6 1.6 0.00 0.00 0.00 81 1013.9
20260507103403 12 293 0.0 0.0 0.00 0.00 0.00 81 1013.9
20260507102853 12 293 0.0 0.0 0.00 0.00 0.00 81 1013.9
20260507102349 12 315 0.0 0.0 0.00 0.00 0.00 81 1014.1
20260507101843 12 293 0.0 0.0 0.00 0.00 0.00 82 1014.1
20260507101339 12 293 0.0 0.0 0.00 0.00 0.00 82 1014.1
20260507100833 12 0 0.0 0.0 0.00 0.00 0.00 83 1014.1
20260507095314 11 0 0.0 0.0 0.00 0.00 0.00 86 1014.1
20260507094809 11 293 1.6 1.6 0.00 0.00 0.00 86 1014.2
20260507094304 12 338 0.0 0.0 0.00 0.00 0.00 86 1014.2
20260507093753 12 203 0.0 0.0 0.00 0.00 0.00 86 1014.3
20260507093249 12 248 0.0 0.0 0.00 0.00 0.00 86 1014.3
20260507092744 12 90 0.0 0.0 0.00 0.00 0.00 86 1014.3
20260507092239 12 113 0.0 0.0 0.00 0.00 0.00 86 1014.3
20260507091734 12 158 3.2 3.2 0.00 0.00 0.00 86 1014.3
20260507090719 12 180 3.2 3.2 0.00 0.00 0.00 83 1014.5
20260507085204 12 203 0.0 0.0 0.00 0.00 0.00 83 1014.6
20260507084149 12 293 0.0 0.0 0.00 0.00 0.00 83 1014.7
20260507083644 12 225 0.0 0.0 0.00 0.00 0.00 83 1014.8
20260507083139 12 248 0.0 0.0 0.00 0.00 0.00 83 1014.8
20260507082634 12 225 0.0 0.0 0.00 0.00 0.00 82 1014.8
20260507082124 12 203 0.0 0.0 0.00 0.00 0.00 82 1014.9
20260507081619 12 203 0.0 0.0 0.00 0.00 0.00 82 1014.9
20260507081114 12 225 0.0 0.0 0.00 0.00 0.00 83 1014.9
20260507080104 12 23 0.0 0.0 0.00 0.00 0.00 81 1014.9
20260507075554 12 113 0.0 0.0 0.00 0.00 0.00 79 1014.9
20260507075049 12 293 0.0 0.0 0.00 0.00 0.00 79 1014.9
20260507074544 12 293 1.6 1.6 0.00 0.00 0.00 79 1014.9
20260507074039 12 248 0.0 0.0 0.00 0.00 0.00 78 1014.9
20260507073024 12 315 0.0 0.0 0.00 0.00 0.00 78 1015.0
20260507072519 12 315 0.0 0.0 0.00 0.00 0.00 78 1015.1
20260507071509 13 225 0.0 0.0 0.00 0.00 0.00 77 1015.1
20260507071004 13 248 0.0 0.0 0.00 0.00 0.00 76 1015.1
20260507065949 13 315 3.2 3.2 0.00 0.00 0.00 76 1015.1
20260507065444 13 225 0.0 0.0 0.00 0.00 0.00 75 1015.1
20260507064434 13 315 3.2 3.2 0.00 0.00 0.00 76 1015.1
20260507063924 13 338 3.2 3.2 0.00 0.00 0.00 76 1015.1
20260507063419 13 248 1.6 1.6 0.00 0.00 0.00 75 1015.2
20260507062914 13 45 0.0 0.0 0.00 0.00 0.00 75 1015.2
20260507062409 13 315 4.8 4.8 0.00 0.00 0.00 75 1015.1
20260507061354 13 248 3.2 3.2 0.00 0.00 0.00 76 1015.2
20260507060849 13 270 4.8 4.8 0.00 0.00 0.00 76 1015.2
20260507060344 13 293 6.4 6.4 0.00 0.00 0.00 77 1015.2
20260507055839 13 248 6.4 6.4 0.00 0.00 0.00 77 1015.2
20260507055329 13 270 6.4 6.4 0.00 0.00 0.00 77 1015.2
20260507054824 13 293 6.4 6.4 0.00 0.00 0.00 77 1015.1
20260507054319 13 0 8.0 8.0 0.00 0.00 0.00 77 1015.1
20260507053814 13 315 6.4 6.4 0.00 0.00 0.00 77 1015.2
20260507052804 13 338 6.4 6.4 0.00 0.00 0.00 77 1015.2
20260507052254 13 315 4.8 4.8 0.00 0.00 0.00 77 1015.2
20260507051749 13 293 3.2 3.2 0.00 0.00 0.00 76 1015.2
20260507051244 13 293 4.8 4.8 0.00 0.00 0.00 76 1015.1
20260507050739 13 270 4.8 4.8 0.00 0.00 0.00 76 1015.1
20260507050229 13 248 6.4 6.4 0.00 0.00 0.00 76 1015.1
20260507045724 13 270 6.4 6.4 0.00 0.00 0.00 76 1015.1
20260507045219 13 338 4.8 4.8 0.00 0.00 0.00 76 1015.1
20260507044714 13 90 1.6 1.6 0.00 0.00 0.00 76 1015.1